La Junta, CO

12:32 PM MDT on October 23, 2019 (GMT -0600)
La Junta Municipal

Weather History for KLHX - September, 2019

Change the Weather History Date:

Friday, September 20, 2019

  Actual Average Record
Temperature  
Mean Temperature 79 °F -  
Max Temperature 93 °F 81 °F 99 °F (1956)
Min Temperature 64 °F 50 °F 35 °F (1965)
Degree Days  
Heating Degree Days 0 3  
Month to date heating degree days 0 25  
Since 1 July heating degree days 0 29  
Cooling Degree Days 14 3  
Growing Degree Days 29 (Base 50)    
Moisture  
Dew Point 45 °F    
Average Humidity 34    
Maximum Humidity 67    
Minimum Humidity 11    
Precipitation  
Precipitation T in 0.03 in 0.41 in (1963)
Month to date precipitation 0.14 0.59  
Year to date precipitation 5.81 9.67  
Sea Level Pressure  
Sea Level Pressure 29.65 in    
Wind  
Wind Speed 13 mph ()    
Max Wind Speed 31 mph    
Max Gust Speed 44 mph    
Visibility 10.0 miles    
Events      
T = Trace of Precipitation, MM = Missing Value Source: Averaged Metar Reports

Daily Weather History Graph

Daily Weather History Graph

Search for Another Location

Airport or City:

Astronomy

Sep. 20, 2019 Rise Set
Actual Time 6:39 AM MDT 6:54 PM MDT
Civil Twilight 6:13 AM MDT 7:20 PM MDT
Nautical Twilight 5:42 AM MDT 7:51 PM MDT
Astronomical Twilight 5:11 AM MDT 8:22 PM MDT
Moon 10:51 PM MDT (9/20) 12:41 PM MDT (9/20)
Length of Visible Light 13h 07m
Length of Day
12h 14m
Waning Gibbous, 64% of the Moon is Illuminated
Sep 20
Waning Gibbous
Sep 21
Last Quarter
Sep 28
New
Oct 5
First Quarter
Oct 13
Full

Hourly Weather History & Observations

Time (MDT) Temp. Heat Index Dew Point Humidity Pressure Visibility Wind Dir Wind Speed Gust Speed Precip Events Conditions
12:53 AM 70.0 °F - 52.0 °F 53% 29.72 in 10.0 mi SSE 13.8 mph 24.2 mph N/A   Clear
1:53 AM 68.0 °F - 53.1 °F 59% 29.73 in 10.0 mi SE 8.1 mph - N/A   Clear
2:53 AM 64.9 °F - 53.1 °F 65% 29.71 in 10.0 mi ESE 6.9 mph - N/A   Clear
3:53 AM 72.0 °F - 52.0 °F 49% 29.69 in 10.0 mi SSW 19.6 mph 43.7 mph N/A   Mostly Cloudy
4:53 AM 73.0 °F - 50.0 °F 44% 29.71 in 10.0 mi South 16.1 mph 28.8 mph N/A   Scattered Clouds
5:53 AM 71.1 °F - 50.0 °F 47% 29.71 in 10.0 mi South 10.4 mph 23.0 mph 0.00 in   Partly Cloudy
6:53 AM 69.1 °F - 51.1 °F 53% 29.73 in 10.0 mi South 15.0 mph - N/A   Clear
7:53 AM 70.0 °F - 52.0 °F 53% 29.73 in 10.0 mi SSW 17.3 mph - N/A   Clear
8:53 AM 77.0 °F - 51.1 °F 40% 29.70 in 10.0 mi SSW 25.3 mph 33.4 mph N/A   Clear
9:53 AM 80.1 °F - 50.0 °F 35% 29.69 in 10.0 mi SW 27.6 mph 35.7 mph N/A   Clear
10:53 AM 84.9 °F - 48.0 °F 28% 29.66 in 10.0 mi SW 26.5 mph - N/A   Clear
11:53 AM 90.0 °F - 41.0 °F 18% 29.64 in 10.0 mi SW 16.1 mph 27.6 mph N/A   Clear
12:53 PM 90.0 °F - 37.0 °F 15% 29.63 in 10.0 mi SW 21.9 mph 32.2 mph N/A   Partly Cloudy
1:53 PM 91.9 °F - 39.9 °F 16% 29.60 in 10.0 mi SSW 20.7 mph 27.6 mph N/A   Clear
2:53 PM 93.0 °F - 37.9 °F 15% 29.58 in 10.0 mi SW 19.6 mph 32.2 mph N/A   Partly Cloudy
3:53 PM 93.9 °F - 37.0 °F 14% 29.55 in 10.0 mi West 13.8 mph 19.6 mph N/A   Clear
4:53 PM 93.0 °F - 33.1 °F 12% 29.53 in 10.0 mi WSW 8.1 mph - N/A   Clear
5:53 PM 91.0 °F - 30.9 °F 12% 29.54 in 10.0 mi WSW 10.4 mph - N/A   Clear
6:53 PM 82.9 °F - 32.0 °F 16% 29.56 in 10.0 mi SW 8.1 mph - N/A   Clear
7:53 PM 82.0 °F 81.2 °F 53.1 °F 37% 29.58 in 10.0 mi South 15.0 mph 21.9 mph N/A   Clear
8:53 PM 79.0 °F - 45.0 °F 30% 29.60 in 10.0 mi SW 6.9 mph 17.3 mph N/A   Clear
9:53 PM 75.0 °F - 46.0 °F 36% 29.64 in 10.0 mi SSW 10.4 mph - N/A   Clear
10:53 PM 73.9 °F - 46.9 °F 38% 29.64 in 10.0 mi SSW 9.2 mph - N/A   Clear
11:53 PM 73.0 °F - 44.1 °F 35% 29.65 in 10.0 mi SW 18.4 mph - N/A   Clear